owner,sensor,date,latitude,longitude,vertical_datum,sea_water_temperature,qcFlag
Shell,ioos:station:wmo:42902:1,2021-06-01T00:08:00Z,28.5986,-88.0173,11.5,26.3,11111222
Shell,ioos:station:wmo:42902:1,2021-06-01T00:18:00Z,28.5986,-88.0173,11.6,26.3,11111222
Shell,ioos:station:wmo:42902:1,2021-06-01T00:28:00Z,28.5985,-88.0173,11.6,26.3,11111222
Shell,ioos:station:wmo:42902:1,2021-06-01T00:38:00Z,28.5985,-88.0173,11.7,26.3,11111222
Shell,ioos:station:wmo:42902:1,2021-06-01T00:48:00Z,28.5985,-88.0173,11.7,26.3,11111222
Shell,ioos:station:wmo:42902:1,2021-06-01T00:58:00Z,28.5985,-88.0173,11.5,26.3,11111222
Shell,ioos:station:wmo:42902:1,2021-06-01T01:08:00Z,28.5985,-88.0173,11.5,26.3,11111222
Shell,ioos:station:wmo:42902:1,2021-06-01T01:18:00Z,28.5986,-88.0173,11.5,26.3,11111222
Shell,ioos:station:wmo:42902:1,2021-06-01T01:28:00Z,28.5986,-88.0173,11.6,26.3,11111222
Shell,ioos:station:wmo:42902:1,2021-06-01T01:38:00Z,28.5986,-88.0173,11.5,26.3,11111222
Shell,ioos:station:wmo:42902:1,2021-06-01T01:48:00Z,28.5986,-88.0173,11.6,26.3,11111222
Shell,ioos:station:wmo:42902:1,2021-06-01T01:58:00Z,28.5986,-88.0173,11.6,26.3,11111222
Shell,ioos:station:wmo:42902:1,2021-06-01T02:08:00Z,28.5986,-88.0173,11.6,26.3,11111222
Shell,ioos:station:wmo:42902:1,2021-06-01T02:18:00Z,28.5986,-88.0173,11.5,26.3,11111222
Shell,ioos:station:wmo:42902:1,2021-06-01T02:28:00Z,28.5986,-88.0173,11.6,26.3,11111222
Shell,ioos:station:wmo:42902:1,2021-06-01T02:38:00Z,28.5986,-88.0173,11.6,26.3,11111222
Shell,ioos:station:wmo:42902:1,2021-06-01T02:48:00Z,28.5986,-88.0173,11.7,26.3,11111222
Shell,ioos:station:wmo:42902:1,2021-06-01T02:58:00Z,28.5986,-88.0173,11.7,26.3,11111222
Shell,ioos:station:wmo:42902:1,2021-06-01T03:08:00Z,28.5986,-88.0173,11.6,26.3,11111222
Shell,ioos:station:wmo:42902:1,2021-06-01T03:18:00Z,28.5985,-88.0173,11.5,26.3,11111222
Shell,ioos:station:wmo:42902:1,2021-06-01T03:28:00Z,28.5986,-88.0173,11.6,26.4,11111222
Shell,ioos:station:wmo:42902:1,2021-06-01T03:38:00Z,28.5986,-88.0173,11.6,26.4,11111222
Shell,ioos:station:wmo:42902:1,2021-06-01T03:48:00Z,28.5986,-88.0173,11.5,26.3,11111222
Shell,ioos:station:wmo:42902:1,2021-06-01T03:58:00Z,28.5986,-88.0173,11.6,26.3,11111222
Shell,ioos:station:wmo:42902:1,2021-06-01T04:08:00Z,28.5986,-88.0173,11.6,26.3,11111222
Shell,ioos:station:wmo:42902:1,2021-06-01T04:19:00Z,28.5986,-88.0173,11.6,26.3,11111222
Shell,ioos:station:wmo:42902:1,2021-06-01T04:29:00Z,28.5986,-88.0173,11.6,26.3,11111222
Shell,ioos:station:wmo:42902:1,2021-06-01T04:39:00Z,28.5986,-88.0173,11.6,26.3,11111222
Shell,ioos:station:wmo:42902:1,2021-06-01T04:49:00Z,28.5986,-88.0173,11.6,26.3,11111222
Shell,ioos:station:wmo:42902:1,2021-06-01T04:59:00Z,28.5986,-88.0173,11.6,26.3,11111222
Shell,ioos:station:wmo:42902:1,2021-06-01T05:09:00Z,28.5986,-88.0173,11.6,26.2,11111222
Shell,ioos:station:wmo:42902:1,2021-06-01T05:19:00Z,28.5986,-88.0173,11.6,26.2,11111222
Shell,ioos:station:wmo:42902:1,2021-06-01T05:29:00Z,28.5985,-88.0173,11.6,26.2,11111222
Shell,ioos:station:wmo:42902:1,2021-06-01T05:39:00Z,28.5985,-88.0173,11.6,26.2,11111222
Shell,ioos:station:wmo:42902:1,2021-06-01T05:49:00Z,28.5986,-88.0173,11.6,26.2,11111222
Shell,ioos:station:wmo:42902:1,2021-06-01T05:59:00Z,28.5986,-88.0173,11.6,26.2,11111222
Shell,ioos:station:wmo:42902:1,2021-06-01T06:09:00Z,28.5986,-88.0173,11.6,26.2,11111222
Shell,ioos:station:wmo:42902:1,2021-06-01T06:19:00Z,28.5986,-88.0173,11.6,26.2,11111222
Shell,ioos:station:wmo:42902:1,2021-06-01T06:29:00Z,28.5986,-88.0173,11.6,26.2,11111222
Shell,ioos:station:wmo:42902:1,2021-06-01T06:39:00Z,28.5986,-88.0173,11.6,26.2,11111222
Shell,ioos:station:wmo:42902:1,2021-06-01T06:49:00Z,28.5986,-88.0173,11.6,26.2,11111222
Shell,ioos:station:wmo:42902:1,2021-06-01T06:59:00Z,28.5986,-88.0173,11.5,26.2,11111222
Shell,ioos:station:wmo:42902:1,2021-06-01T07:09:00Z,28.5986,-88.0173,11.4,26.2,11111222
Shell,ioos:station:wmo:42902:1,2021-06-01T07:19:00Z,28.5986,-88.0173,11.6,26.2,11111222
Shell,ioos:station:wmo:42902:1,2021-06-01T07:29:00Z,28.5985,-88.0173,11.6,26.2,11111222
Shell,ioos:station:wmo:42902:1,2021-06-01T07:39:00Z,28.5986,-88.0173,11.5,26.2,11111222
Shell,ioos:station:wmo:42902:1,2021-06-01T07:49:00Z,28.5985,-88.0173,11.5,26.2,11111222
Shell,ioos:station:wmo:42902:1,2021-06-01T07:59:00Z,28.5985,-88.0173,11.6,26.2,11111222
Shell,ioos:station:wmo:42902:1,2021-06-01T08:09:00Z,28.5985,-88.0173,11.6,26.2,11111222
Shell,ioos:station:wmo:42902:1,2021-06-01T08:19:00Z,28.5986,-88.0173,11.4,26.2,11111222
Shell,ioos:station:wmo:42902:1,2021-06-01T08:29:00Z,28.5986,-88.0173,11.4,26.3,11111222
Shell,ioos:station:wmo:42902:1,2021-06-01T08:39:00Z,28.5986,-88.0173,11.5,26.3,11111222
Shell,ioos:station:wmo:42902:1,2021-06-01T08:49:00Z,28.5986,-88.0173,11.4,26.3,11111222
Shell,ioos:station:wmo:42902:1,2021-06-01T08:59:00Z,28.5985,-88.0173,11.3,26.3,11111222
Shell,ioos:station:wmo:42902:1,2021-06-01T09:09:00Z,28.5985,-88.0173,11.4,26.3,11111222
Shell,ioos:station:wmo:42902:1,2021-06-01T09:19:00Z,28.5985,-88.0173,11.4,26.3,11111222
Shell,ioos:station:wmo:42902:1,2021-06-01T09:29:00Z,28.5986,-88.0173,11.4,26.3,11111222
Shell,ioos:station:wmo:42902:1,2021-06-01T09:39:00Z,28.5985,-88.0173,11.5,26.3,11111222
Shell,ioos:station:wmo:42902:1,2021-06-01T09:49:00Z,28.5986,-88.0173,11.4,26.3,11111222
Shell,ioos:station:wmo:42902:1,2021-06-01T09:59:00Z,28.5986,-88.0173,11.4,26.3,11111222
Shell,ioos:station:wmo:42902:1,2021-06-01T10:09:00Z,28.5986,-88.0173,11.4,26.3,11111222
Shell,ioos:station:wmo:42902:1,2021-06-01T10:19:00Z,28.5985,-88.0173,11.4,26.3,11111222
Shell,ioos:station:wmo:42902:1,2021-06-01T10:29:00Z,28.5985,-88.0173,11.4,26.3,11111222
Shell,ioos:station:wmo:42902:1,2021-06-01T10:39:00Z,28.5986,-88.0173,11.4,26.3,11111222
Shell,ioos:station:wmo:42902:1,2021-06-01T10:49:00Z,28.5986,-88.0173,11.5,26.3,11111222
Shell,ioos:station:wmo:42902:1,2021-06-01T10:59:00Z,28.5986,-88.0173,11.4,26.3,11111222
Shell,ioos:station:wmo:42902:1,2021-06-01T11:09:00Z,28.5986,-88.0173,11.4,26.3,11111222
Shell,ioos:station:wmo:42902:1,2021-06-01T11:19:00Z,28.5986,-88.0173,11.4,26.3,11111222
Shell,ioos:station:wmo:42902:1,2021-06-01T11:29:00Z,28.5986,-88.0173,11.4,26.2,11111222
Shell,ioos:station:wmo:42902:1,2021-06-01T11:40:00Z,28.5986,-88.0173,11.4,26.2,11111222
Shell,ioos:station:wmo:42902:1,2021-06-01T11:50:00Z,28.5985,-88.0173,11.4,26.2,11111222
Shell,ioos:station:wmo:42902:1,2021-06-01T12:00:00Z,28.5986,-88.0173,11.3,26.2,11111222
Shell,ioos:station:wmo:42902:1,2021-06-01T12:10:00Z,28.5986,-88.0173,11.3,26.2,11111222
Shell,ioos:station:wmo:42902:1,2021-06-01T12:20:00Z,28.5986,-88.0173,11.3,26.2,11111222
Shell,ioos:station:wmo:42902:1,2021-06-01T12:30:00Z,28.5986,-88.0173,11.4,26.2,11111222
Shell,ioos:station:wmo:42902:1,2021-06-01T12:40:00Z,28.5985,-88.0173,11.4,26.2,11111222
Shell,ioos:station:wmo:42902:1,2021-06-01T12:50:00Z,28.5985,-88.0173,11.4,26.2,11111222
Shell,ioos:station:wmo:42902:1,2021-06-01T13:00:00Z,28.5986,-88.0173,11.4,26.3,11111222
Shell,ioos:station:wmo:42902:1,2021-06-01T13:10:00Z,28.5986,-88.0173,11.5,26.3,11111222
Shell,ioos:station:wmo:42902:1,2021-06-01T13:20:00Z,28.5986,-88.0173,11.6,26.3,11111222
Shell,ioos:station:wmo:42902:1,2021-06-01T13:30:00Z,28.5986,-88.0173,11.6,26.3,11111222
Shell,ioos:station:wmo:42902:1,2021-06-01T13:40:00Z,28.5986,-88.0173,11.6,26.3,11111222
Shell,ioos:station:wmo:42902:1,2021-06-01T13:50:00Z,28.5985,-88.0173,11.5,26.3,11111222
Shell,ioos:station:wmo:42902:1,2021-06-01T14:00:00Z,28.5985,-88.0173,11.5,26.3,11111222
Shell,ioos:station:wmo:42902:1,2021-06-01T14:10:00Z,28.5985,-88.0173,11.5,26.3,11111222
Shell,ioos:station:wmo:42902:1,2021-06-01T14:20:00Z,28.5985,-88.0173,11.6,26.3,11111222
Shell,ioos:station:wmo:42902:1,2021-06-01T14:30:00Z,28.5986,-88.0173,11.6,26.3,11111222
Shell,ioos:station:wmo:42902:1,2021-06-01T14:40:00Z,28.5986,-88.0173,11.6,26.3,11111222
Shell,ioos:station:wmo:42902:1,2021-06-01T14:50:00Z,28.5986,-88.0173,11.6,26.3,11111222
Shell,ioos:station:wmo:42902:1,2021-06-01T15:00:00Z,28.5986,-88.0173,11.5,26.3,11111222
Shell,ioos:station:wmo:42902:1,2021-06-01T15:10:00Z,28.5986,-88.0173,11.4,26.4,11111222
Shell,ioos:station:wmo:42902:1,2021-06-01T15:20:00Z,28.5986,-88.0173,11.4,26.3,11111222
Shell,ioos:station:wmo:42902:1,2021-06-01T15:30:00Z,28.5986,-88.0173,11.4,26.4,11111222
Shell,ioos:station:wmo:42902:1,2021-06-01T15:40:00Z,28.5985,-88.0173,11.4,26.4,11111222
Shell,ioos:station:wmo:42902:1,2021-06-01T15:50:00Z,28.5986,-88.0173,11.4,26.3,11111222
Shell,ioos:station:wmo:42902:1,2021-06-01T16:00:00Z,28.5986,-88.0173,11.4,26.3,11111222
Shell,ioos:station:wmo:42902:1,2021-06-01T16:10:00Z,28.5986,-88.0173,11.4,26.3,11111222
Shell,ioos:station:wmo:42902:1,2021-06-01T16:20:00Z,28.5985,-88.0173,11.5,26.3,11111222
Shell,ioos:station:wmo:42902:1,2021-06-01T16:30:00Z,28.5986,-88.0173,11.5,26.3,11111222
Shell,ioos:station:wmo:42902:1,2021-06-01T16:40:00Z,28.5986,-88.0173,11.5,26.3,11111222
Shell,ioos:station:wmo:42902:1,2021-06-01T16:50:00Z,28.5985,-88.0173,11.5,26.3,11111222
Shell,ioos:station:wmo:42902:1,2021-06-01T17:00:00Z,28.5985,-88.0173,11.4,26.3,11111222
Shell,ioos:station:wmo:42902:1,2021-06-01T17:10:00Z,28.5986,-88.0173,11.4,26.4,11111222
Shell,ioos:station:wmo:42902:1,2021-06-01T17:20:00Z,28.5986,-88.0173,11.4,26.4,11111222
Shell,ioos:station:wmo:42902:1,2021-06-01T17:30:00Z,28.5986,-88.0173,11.5,26.4,11111222
Shell,ioos:station:wmo:42902:1,2021-06-01T17:40:00Z,28.5985,-88.0173,11.4,26.4,11111222
Shell,ioos:station:wmo:42902:1,2021-06-01T17:50:00Z,28.5985,-88.0173,11.4,26.4,11111222
Shell,ioos:station:wmo:42902:1,2021-06-01T18:00:00Z,28.5986,-88.0173,11.3,26.5,11111222
Shell,ioos:station:wmo:42902:1,2021-06-01T18:10:00Z,28.5986,-88.0173,11.2,26.5,11111222
Shell,ioos:station:wmo:42902:1,2021-06-01T18:20:00Z,28.5985,-88.0173,11.3,26.5,11111222
Shell,ioos:station:wmo:42902:1,2021-06-01T18:30:00Z,28.5986,-88.0173,11.2,26.5,11111222
Shell,ioos:station:wmo:42902:1,2021-06-01T18:40:00Z,28.5986,-88.0173,11.3,26.6,11111222
Shell,ioos:station:wmo:42902:1,2021-06-01T18:50:00Z,28.5986,-88.0173,11.3,26.6,11111222
Shell,ioos:station:wmo:42902:1,2021-06-01T19:00:00Z,28.5986,-88.0173,11.3,26.6,11111222
Shell,ioos:station:wmo:42902:1,2021-06-01T19:11:00Z,28.5985,-88.0173,11.3,26.7,11111222
Shell,ioos:station:wmo:42902:1,2021-06-01T19:21:00Z,28.5985,-88.0173,11.3,26.6,11111222
Shell,ioos:station:wmo:42902:1,2021-06-01T19:31:00Z,28.5986,-88.0173,11.3,26.7,11111222
Shell,ioos:station:wmo:42902:1,2021-06-01T19:41:00Z,28.5986,-88.0173,11.2,26.7,11111222
Shell,ioos:station:wmo:42902:1,2021-06-01T19:51:00Z,28.5986,-88.0173,11.2,26.6,11111222
Shell,ioos:station:wmo:42902:1,2021-06-01T20:01:00Z,28.5986,-88.0173,11.2,26.6,11111222
Shell,ioos:station:wmo:42902:1,2021-06-01T20:11:00Z,28.5985,-88.0173,11.4,26.6,11111222
Shell,ioos:station:wmo:42902:1,2021-06-01T20:21:00Z,28.5985,-88.0173,11.5,26.6,11111222
Shell,ioos:station:wmo:42902:1,2021-06-01T20:31:00Z,28.5985,-88.0173,11.5,26.6,11111222
Shell,ioos:station:wmo:42902:1,2021-06-01T20:41:00Z,28.5985,-88.0173,11.5,26.6,11111222
Shell,ioos:station:wmo:42902:1,2021-06-01T20:51:00Z,28.5985,-88.0173,11.5,26.6,11111222
Shell,ioos:station:wmo:42902:1,2021-06-01T21:01:00Z,28.5985,-88.0173,11.5,26.6,11111222
Shell,ioos:station:wmo:42902:1,2021-06-01T21:11:00Z,28.5986,-88.0173,11.4,26.7,11111222
Shell,ioos:station:wmo:42902:1,2021-06-01T21:21:00Z,28.5986,-88.0173,11.5,26.7,11111222
Shell,ioos:station:wmo:42902:1,2021-06-01T21:31:00Z,28.5986,-88.0173,11.5,26.7,11111222
Shell,ioos:station:wmo:42902:1,2021-06-01T21:41:00Z,28.5985,-88.0173,11.5,26.7,11111222
Shell,ioos:station:wmo:42902:1,2021-06-01T21:51:00Z,28.5985,-88.0173,11.5,26.7,11111222
Shell,ioos:station:wmo:42902:1,2021-06-01T22:11:00Z,28.5985,-88.0173,11.5,26.7,11111222
Shell,ioos:station:wmo:42902:1,2021-06-01T22:21:00Z,28.5985,-88.0173,11.5,26.6,11111222
Shell,ioos:station:wmo:42902:1,2021-06-01T22:31:00Z,28.5985,-88.0173,11.5,26.6,11111222
Shell,ioos:station:wmo:42902:1,2021-06-01T22:41:00Z,28.5985,-88.0173,11.5,26.7,11111222
Shell,ioos:station:wmo:42902:1,2021-06-01T22:51:00Z,28.5985,-88.0173,11.5,26.7,11111222
Shell,ioos:station:wmo:42902:1,2021-06-01T23:01:00Z,28.5985,-88.0173,11.5,26.7,11111222
Shell,ioos:station:wmo:42902:1,2021-06-01T23:11:00Z,28.5985,-88.0173,11.5,26.6,11111222
Shell,ioos:station:wmo:42902:1,2021-06-01T23:21:00Z,28.5985,-88.0173,11.5,26.6,11111222
Shell,ioos:station:wmo:42902:1,2021-06-01T23:31:00Z,28.5985,-88.0173,11.4,26.6,11111222
Shell,ioos:station:wmo:42902:1,2021-06-01T23:41:00Z,28.5985,-88.0173,11.4,26.7,11111222
Shell,ioos:station:wmo:42902:1,2021-06-01T23:51:00Z,28.5985,-88.0173,11.4,26.7,11111222
Shell,ioos:station:wmo:42902:1,2021-06-02T00:01:00Z,28.5986,-88.0173,11.4,26.6,11111222
Shell,ioos:station:wmo:42902:1,2021-06-02T00:11:00Z,28.5986,-88.0173,11.4,26.6,11111222
Shell,ioos:station:wmo:42902:1,2021-06-02T00:21:00Z,28.5986,-88.0173,11.4,26.6,11111222
Shell,ioos:station:wmo:42902:1,2021-06-02T00:31:00Z,28.5985,-88.0173,11.4,26.6,11111222
Shell,ioos:station:wmo:42902:1,2021-06-02T00:41:00Z,28.5985,-88.0173,11.4,26.6,11111222
Shell,ioos:station:wmo:42902:1,2021-06-02T00:51:00Z,28.5985,-88.0173,11.4,26.6,11111222
Shell,ioos:station:wmo:42902:1,2021-06-02T01:01:00Z,28.5985,-88.0173,11.4,26.6,11111222
Shell,ioos:station:wmo:42902:1,2021-06-02T01:11:00Z,28.5986,-88.0173,11.4,26.7,11111222
Shell,ioos:station:wmo:42902:1,2021-06-02T01:21:00Z,28.5986,-88.0173,11.4,26.7,11111222
Shell,ioos:station:wmo:42902:1,2021-06-02T01:31:00Z,28.5986,-88.0173,11.4,26.7,11111222
Shell,ioos:station:wmo:42902:1,2021-06-02T01:41:00Z,28.5986,-88.0173,11.4,26.7,11111222
Shell,ioos:station:wmo:42902:1,2021-06-02T01:51:00Z,28.5985,-88.0173,11.4,26.7,11111222
Shell,ioos:station:wmo:42902:1,2021-06-02T02:01:00Z,28.5986,-88.0173,11.4,26.7,11111222
Shell,ioos:station:wmo:42902:1,2021-06-02T02:11:00Z,28.5985,-88.0173,11.3,26.7,11111222
Shell,ioos:station:wmo:42902:1,2021-06-02T02:21:00Z,28.5986,-88.0173,11.4,26.7,11111222
Shell,ioos:station:wmo:42902:1,2021-06-02T02:32:00Z,28.5986,-88.0173,11.4,26.7,11111222
Shell,ioos:station:wmo:42902:1,2021-06-02T02:42:00Z,28.5985,-88.0173,11.4,26.7,11111222
Shell,ioos:station:wmo:42902:1,2021-06-02T02:52:00Z,28.5986,-88.0173,11.4,26.7,11111222
Shell,ioos:station:wmo:42902:1,2021-06-02T03:02:00Z,28.5985,-88.0173,11.5,26.7,11111222
Shell,ioos:station:wmo:42902:1,2021-06-02T03:12:00Z,28.5985,-88.0173,11.5,26.7,11111222
Shell,ioos:station:wmo:42902:1,2021-06-02T03:22:00Z,28.5985,-88.0173,11.5,26.7,11111222
Shell,ioos:station:wmo:42902:1,2021-06-02T03:32:00Z,28.5985,-88.0173,11.5,26.7,11111222
Shell,ioos:station:wmo:42902:1,2021-06-02T03:42:00Z,28.5986,-88.0173,11.5,26.7,11111222
Shell,ioos:station:wmo:42902:1,2021-06-02T03:52:00Z,28.5985,-88.0173,11.4,26.7,11111222
Shell,ioos:station:wmo:42902:1,2021-06-02T04:02:00Z,28.5984,-88.0175,11.4,26.7,11111222
Shell,ioos:station:wmo:42902:1,2021-06-02T04:12:00Z,28.5984,-88.0175,11.4,26.7,11111222
Shell,ioos:station:wmo:42902:1,2021-06-02T04:22:00Z,28.5984,-88.0175,11.4,26.7,11111222
Shell,ioos:station:wmo:42902:1,2021-06-02T04:32:00Z,28.5984,-88.0175,11.5,26.7,11111222
Shell,ioos:station:wmo:42902:1,2021-06-02T04:42:00Z,28.5984,-88.0175,11.5,26.7,11111222
Shell,ioos:station:wmo:42902:1,2021-06-02T04:52:00Z,28.5984,-88.0175,11.5,26.7,11111222
Shell,ioos:station:wmo:42902:1,2021-06-02T05:02:00Z,28.5984,-88.0175,11.5,26.6,11111222
Shell,ioos:station:wmo:42902:1,2021-06-02T05:12:00Z,28.5984,-88.0175,11.5,26.6,11111222
Shell,ioos:station:wmo:42902:1,2021-06-02T05:22:00Z,28.5984,-88.0175,11.5,26.7,11111222
Shell,ioos:station:wmo:42902:1,2021-06-02T05:32:00Z,28.5984,-88.0175,11.5,26.6,11111222
Shell,ioos:station:wmo:42902:1,2021-06-02T05:42:00Z,28.5984,-88.0175,11.5,26.6,11111222
Shell,ioos:station:wmo:42902:1,2021-06-02T05:52:00Z,28.5984,-88.0175,11.4,26.6,11111222
Shell,ioos:station:wmo:42902:1,2021-06-02T06:02:00Z,28.5984,-88.0175,11.5,26.6,11111222
Shell,ioos:station:wmo:42902:1,2021-06-02T06:12:00Z,28.5984,-88.0175,11.5,26.6,11111222
Shell,ioos:station:wmo:42902:1,2021-06-02T06:22:00Z,28.5984,-88.0175,11.4,26.7,11111222
Shell,ioos:station:wmo:42902:1,2021-06-02T06:32:00Z,28.5984,-88.0175,11.4,26.6,11111222
Shell,ioos:station:wmo:42902:1,2021-06-02T06:42:00Z,28.5984,-88.0175,11.4,26.6,11111222
Shell,ioos:station:wmo:42902:1,2021-06-02T06:52:00Z,28.5984,-88.0175,11.4,26.6,11111222
Shell,ioos:station:wmo:42902:1,2021-06-02T07:02:00Z,28.5984,-88.0175,11.4,26.7,11111222
Shell,ioos:station:wmo:42902:1,2021-06-02T07:12:00Z,28.5984,-88.0175,11.4,26.7,11111222
Shell,ioos:station:wmo:42902:1,2021-06-02T07:22:00Z,28.5984,-88.0175,11.3,26.6,11111222
Shell,ioos:station:wmo:42902:1,2021-06-02T07:32:00Z,28.5984,-88.0175,11.4,26.6,11111222
Shell,ioos:station:wmo:42902:1,2021-06-02T07:42:00Z,28.5984,-88.0175,11.4,26.6,11111222
Shell,ioos:station:wmo:42902:1,2021-06-02T07:52:00Z,28.5984,-88.0175,11.4,26.6,11111222
Shell,ioos:station:wmo:42902:1,2021-06-02T08:02:00Z,28.5984,-88.0175,11.4,26.6,11111222
Shell,ioos:station:wmo:42902:1,2021-06-02T08:12:00Z,28.5984,-88.0175,11.4,26.6,11111222
Shell,ioos:station:wmo:42902:1,2021-06-02T08:22:00Z,28.5984,-88.0175,11.3,26.6,11111222
Shell,ioos:station:wmo:42902:1,2021-06-02T08:32:00Z,28.5984,-88.0175,11.4,26.6,11111222
Shell,ioos:station:wmo:42902:1,2021-06-02T08:42:00Z,28.5984,-88.0175,11.3,26.6,11111222
Shell,ioos:station:wmo:42902:1,2021-06-02T08:52:00Z,28.5984,-88.0175,11.4,26.6,11111222
Shell,ioos:station:wmo:42902:1,2021-06-02T09:02:00Z,28.5984,-88.0175,11.4,26.6,11111222
Shell,ioos:station:wmo:42902:1,2021-06-02T09:12:00Z,28.5984,-88.0175,11.5,26.6,11111222
Shell,ioos:station:wmo:42902:1,2021-06-02T09:22:00Z,28.5984,-88.0175,11.5,26.6,11111222
Shell,ioos:station:wmo:42902:1,2021-06-02T09:32:00Z,28.5984,-88.0175,11.5,26.6,11111222
Shell,ioos:station:wmo:42902:1,2021-06-02T09:42:00Z,28.5984,-88.0175,11.4,26.6,11111222
Shell,ioos:station:wmo:42902:1,2021-06-02T09:53:00Z,28.5984,-88.0175,11.3,26.6,11111222
Shell,ioos:station:wmo:42902:1,2021-06-02T10:03:00Z,28.5984,-88.0175,11.3,26.6,11111222
Shell,ioos:station:wmo:42902:1,2021-06-02T10:13:00Z,28.5984,-88.0175,11.4,26.6,11111222
Shell,ioos:station:wmo:42902:1,2021-06-02T10:23:00Z,28.5984,-88.0175,11.4,26.6,11111222
Shell,ioos:station:wmo:42902:1,2021-06-02T10:33:00Z,28.5984,-88.0175,11.4,26.6,11111222
Shell,ioos:station:wmo:42902:1,2021-06-02T10:43:00Z,28.5984,-88.0175,11.4,26.6,11111222
Shell,ioos:station:wmo:42902:1,2021-06-02T10:53:00Z,28.5984,-88.0175,11.4,26.6,11111222
Shell,ioos:station:wmo:42902:1,2021-06-02T11:03:00Z,28.5984,-88.0175,11.4,26.6,11111222
Shell,ioos:station:wmo:42902:1,2021-06-02T11:13:00Z,28.5984,-88.0175,11.4,26.6,11111222
Shell,ioos:station:wmo:42902:1,2021-06-02T11:23:00Z,28.5984,-88.0175,11.4,26.6,11111222
Shell,ioos:station:wmo:42902:1,2021-06-02T11:33:00Z,28.5984,-88.0175,11.4,26.6,11111222
Shell,ioos:station:wmo:42902:1,2021-06-02T11:43:00Z,28.5984,-88.0175,11.4,26.6,11111222
Shell,ioos:station:wmo:42902:1,2021-06-02T11:53:00Z,28.5984,-88.0175,11.4,26.6,11111222
Shell,ioos:station:wmo:42902:1,2021-06-02T12:03:00Z,28.5984,-88.0175,11.4,26.5,11111222
Shell,ioos:station:wmo:42902:1,2021-06-02T12:13:00Z,28.5984,-88.0175,11.4,26.6,11111222
Shell,ioos:station:wmo:42902:1,2021-06-02T12:23:00Z,28.5984,-88.0175,11.5,26.6,11111222
Shell,ioos:station:wmo:42902:1,2021-06-02T12:33:00Z,28.5984,-88.0175,11.5,26.6,11111222
Shell,ioos:station:wmo:42902:1,2021-06-02T12:43:00Z,28.5984,-88.0175,11.5,26.6,11111222
Shell,ioos:station:wmo:42902:1,2021-06-02T12:53:00Z,28.5984,-88.0175,11.5,26.6,11111222
Shell,ioos:station:wmo:42902:1,2021-06-02T13:03:00Z,28.5984,-88.0175,11.5,26.6,11111222
Shell,ioos:station:wmo:42902:1,2021-06-02T13:13:00Z,28.5984,-88.0175,11.4,26.6,11111222
Shell,ioos:station:wmo:42902:1,2021-06-02T13:23:00Z,28.5984,-88.0175,11.4,26.6,11111222
Shell,ioos:station:wmo:42902:1,2021-06-02T13:33:00Z,28.5984,-88.0175,11.4,26.6,11111222
Shell,ioos:station:wmo:42902:1,2021-06-02T13:43:00Z,28.5984,-88.0175,11.4,26.6,11111222
Shell,ioos:station:wmo:42902:1,2021-06-02T13:53:00Z,28.5984,-88.0175,11.4,26.6,11111222
Shell,ioos:station:wmo:42902:1,2021-06-02T14:03:00Z,28.5984,-88.0175,11.3,26.6,11111222
Shell,ioos:station:wmo:42902:1,2021-06-02T14:13:00Z,28.5984,-88.0175,11.3,26.6,11111222
Shell,ioos:station:wmo:42902:1,2021-06-02T14:23:00Z,28.5984,-88.0175,11.4,26.6,11111222
Shell,ioos:station:wmo:42902:1,2021-06-02T14:33:00Z,28.5984,-88.0175,11.4,26.6,11111222
Shell,ioos:station:wmo:42902:1,2021-06-02T14:43:00Z,28.5984,-88.0175,11.4,26.6,11111222
Shell,ioos:station:wmo:42902:1,2021-06-02T14:53:00Z,28.5984,-88.0175,11.3,26.6,11111222
Shell,ioos:station:wmo:42902:1,2021-06-02T15:03:00Z,28.5984,-88.0175,11.4,26.6,11111222
Shell,ioos:station:wmo:42902:1,2021-06-02T15:13:00Z,28.5984,-88.0175,11.4,26.6,11111222
Shell,ioos:station:wmo:42902:1,2021-06-02T15:23:00Z,28.5984,-88.0175,11.3,26.6,11111222
Shell,ioos:station:wmo:42902:1,2021-06-02T15:33:00Z,28.5983,-88.0178,11.4,26.6,11111222
Shell,ioos:station:wmo:42902:1,2021-06-02T15:43:00Z,28.5983,-88.0178,11.4,26.6,11111222
Shell,ioos:station:wmo:42902:1,2021-06-02T15:53:00Z,28.5983,-88.0178,11.4,26.6,11111222
Shell,ioos:station:wmo:42902:1,2021-06-02T16:03:00Z,28.5983,-88.0178,11.4,26.6,11111222
Shell,ioos:station:wmo:42902:1,2021-06-02T16:13:00Z,28.5983,-88.0178,11.4,26.7,11111222
Shell,ioos:station:wmo:42902:1,2021-06-02T16:23:00Z,28.5983,-88.0178,11.5,26.7,11111222
Shell,ioos:station:wmo:42902:1,2021-06-02T16:33:00Z,28.5983,-88.0178,11.5,26.6,11111222
Shell,ioos:station:wmo:42902:1,2021-06-02T16:43:00Z,28.5983,-88.0178,11.5,26.6,11111222
Shell,ioos:station:wmo:42902:1,2021-06-02T16:53:00Z,28.5983,-88.0178,11.5,26.7,11111222
Shell,ioos:station:wmo:42902:1,2021-06-02T17:03:00Z,28.5983,-88.0178,11.5,26.7,11111222
Shell,ioos:station:wmo:42902:1,2021-06-02T17:14:00Z,28.5983,-88.0178,11.5,26.7,11111222
Shell,ioos:station:wmo:42902:1,2021-06-02T17:24:00Z,28.5983,-88.0178,11.5,26.7,11111222
Shell,ioos:station:wmo:42902:1,2021-06-02T17:34:00Z,28.5983,-88.0178,11.5,26.7,11111222
Shell,ioos:station:wmo:42902:1,2021-06-02T17:44:00Z,28.5983,-88.0178,11.5,26.7,11111222
Shell,ioos:station:wmo:42902:1,2021-06-02T17:54:00Z,28.5983,-88.0178,11.4,26.8,11111222
Shell,ioos:station:wmo:42902:1,2021-06-02T18:04:00Z,28.5983,-88.0178,11.4,26.8,11111222
Shell,ioos:station:wmo:42902:1,2021-06-02T18:14:00Z,28.5983,-88.0178,11.4,26.8,11111222
Shell,ioos:station:wmo:42902:1,2021-06-02T18:24:00Z,28.5983,-88.0178,11.5,26.8,11111222
Shell,ioos:station:wmo:42902:1,2021-06-02T18:34:00Z,28.5983,-88.0178,11.5,26.7,11111222
Shell,ioos:station:wmo:42902:1,2021-06-02T18:44:00Z,28.5983,-88.0178,11.5,26.9,11111222
Shell,ioos:station:wmo:42902:1,2021-06-02T18:54:00Z,28.5983,-88.0178,11.5,26.9,11111222
Shell,ioos:station:wmo:42902:1,2021-06-02T19:04:00Z,28.5983,-88.0178,11.4,26.9,11111222
Shell,ioos:station:wmo:42902:1,2021-06-02T19:14:00Z,28.5983,-88.0178,11.4,26.8,11111222
Shell,ioos:station:wmo:42902:1,2021-06-02T19:24:00Z,28.5983,-88.0178,11.5,26.8,11111222
Shell,ioos:station:wmo:42902:1,2021-06-02T19:34:00Z,28.5983,-88.0178,11.4,26.9,11111222
Shell,ioos:station:wmo:42902:1,2021-06-02T19:44:00Z,28.5983,-88.0178,11.2,26.9,11111222
Shell,ioos:station:wmo:42902:1,2021-06-02T19:54:00Z,28.5983,-88.0178,11.2,26.9,11111222
Shell,ioos:station:wmo:42902:1,2021-06-02T20:04:00Z,28.5983,-88.0178,11.2,26.9,11111222
Shell,ioos:station:wmo:42902:1,2021-06-02T20:14:00Z,28.5983,-88.0178,11.2,26.9,11111222
Shell,ioos:station:wmo:42902:1,2021-06-02T20:24:00Z,28.5983,-88.0178,11.2,26.9,11111222
Shell,ioos:station:wmo:42902:1,2021-06-02T20:34:00Z,28.5983,-88.0178,11.3,26.9,11111222
Shell,ioos:station:wmo:42902:1,2021-06-02T20:44:00Z,28.5983,-88.0178,11.3,26.9,11111222
Shell,ioos:station:wmo:42902:1,2021-06-02T20:54:00Z,28.5983,-88.0178,11.3,27.0,11111222